Погода в Большом Долженкове

Россия / Курская область     51°42′08″N   35°50′20″E
темп.,
°C
ветер,
м/с
пор.,
м/с
влажн.,
%
обл.,
%
осадки,
мм/ч
давл.,
гПа
погр.,
м
28 июля, ср
ср2800:00+21ююв225299 0.0 101929
03:00+19ю3351100 0.0 101829
06:00+18ююв3655100 0.0 1017100
09:00+20ю3758100 0.0 1016203
12:00+23ююз2557100 0.0 1015387
15:00+21с4573100 0.2 1014127
18:00+21ююв247822 1.3 1013159
21:00+18ююв22895 1.6 101322
29 июля, чт
чт2900:00+18зюз35921 0.0 101275
03:00+17з23925 0.0 101146
06:00+18зсз229160 0.0 101152
09:00+23зюз347340 0.0 1011389
12:00+28зюз46544 0.0 10101328
15:00+30зсз464022 0.1 10102399
18:00+29сз24500 0.0 1008422
21:00+23в22610 0.0 100814
30 июля, пт
пт3000:00+21ююв356521 0.1 100872
03:00+19зюз358093 0.4 100789
06:00+19зюз368856 0.1 1007143
09:00+23з33755 0.1 1008556
12:00+25зсз4465100 0.0 10081185
15:00+26сз4561100 0.1 10081333
18:00+24сз476628 0.0 1008542
21:00+21с2274100 0.0 100920
31 июля, сб
сб3100:00+21сз226824 0.0 101043
03:00+17сз12786 0.0 101011
06:00+18зюз12780 0.0 101014
09:00+24зюз34560 0.0 1011415
12:00+27зюз46455 0.0 10111588
15:00+29з45385 0.0 10102208
18:00+29юз234626 0.0 1010479
21:00+22ю225595 0.0 101016
1 августа, вс
вс100:00+20ю225628 0.0 101011
03:00+19ююв38620 0.0 1010130
06:00+18ю38690 0.0 1010151
09:00+25ююз595312 0.0 1009426
12:00+29юз71040100 0.0 10091759
15:00+29зюз6846100 0.0 10091539
18:00+27зсз365989 0.0 1009233
21:00+22с34690 0.0 100965